Truth Or Consequences, NM

5:17 PM MST on December 15, 2019 (GMT -0700)
Truth Or Consequences Municipal

Weather History for KTCS - November, 2019

Change the Weather History Date:

Tuesday, November 12, 2019

  Actual Average Record
Temperature  
Mean Temperature 42 °F -  
Max Temperature 50 °F 64 °F 74 °F (2017)
Min Temperature 35 °F 37 °F 24 °F (2012)
Degree Days  
Heating Degree Days 22    
Month to date heating degree days 137  
Since 1 July heating degree days 294  
Moisture  
Dew Point 23 °F    
Average Humidity 48    
Maximum Humidity 53    
Minimum Humidity 42    
Precipitation  
Precipitation 0.00 in - 0.15 in (2003)
Month to date precipitation 0.32  
Year to date precipitation 5.90  
Sea Level Pressure  
Sea Level Pressure 30.31 in    
Wind  
Wind Speed 8 mph ()    
Max Wind Speed 20 mph    
Max Gust Speed 24 mph    
Visibility 10.0 miles    
Events      
T = Trace of Precipitation, MM = Missing Value Source: Averaged Metar Reports

Daily Weather History Graph

Daily Weather History Graph

Search for Another Location

Airport or City:

Astronomy

Nov. 12, 2019 Rise Set
Actual Time 6:37 AM MST 5:08 PM MST
Civil Twilight 6:11 AM MST 5:34 PM MST
Nautical Twilight 5:41 AM MST 6:04 PM MST
Astronomical Twilight 5:11 AM MST 6:34 PM MST
Moon 5:36 PM MST (11/12) 6:34 AM MST (11/12)
Length of Visible Light 11h 23m
Length of Day
10h 31m
Full, 100% of the Moon is Illuminated
Nov 12
Full
Nov 19
Last Quarter
Nov 26
New
Dec 3
First Quarter
Dec 11
Full

Hourly Weather History & Observations

Time (MST) Temp. Windchill Dew Point Humidity Pressure Visibility Wind Dir Wind Speed Gust Speed Precip Events Conditions
12:53 AM 36.0 °F 26.0 °F 19.9 °F 52% 30.33 in 10.0 mi NNE 17.3 mph 24.2 mph N/A   Overcast
1:53 AM 36.0 °F 28.0 °F 19.9 °F 52% 30.34 in 10.0 mi NNE 11.5 mph - N/A   Overcast
2:53 AM 36.0 °F 28.0 °F 19.9 °F 52% 30.34 in 10.0 mi NNE 11.5 mph - N/A   Overcast
3:53 AM 36.0 °F 28.5 °F 19.9 °F 52% 30.35 in 10.0 mi NNE 10.4 mph - N/A   Overcast
4:53 AM 36.0 °F 29.6 °F 19.9 °F 52% 30.39 in 10.0 mi NNE 8.1 mph - N/A   Overcast
5:50 AM 35.6 °F 29.9 °F 19.4 °F 52% 30.44 in 10.0 mi North 6.9 mph - N/A   Overcast
5:53 AM 36.0 °F 31.1 °F 19.0 °F 50% 30.41 in 10.0 mi NNE 5.8 mph - N/A   Overcast
6:39 AM 36.0 °F 30.3 °F 19.0 °F 50% 30.44 in 10.0 mi NNE 6.9 mph - N/A   Overcast
6:53 AM 36.0 °F 30.3 °F 19.0 °F 50% 30.42 in 10.0 mi NNE 6.9 mph - N/A   Overcast
7:53 AM 36.0 °F 29.6 °F 19.0 °F 50% 30.43 in 10.0 mi NNE 8.1 mph - N/A   Overcast
8:53 AM 37.9 °F 32.7 °F 19.0 °F 47% 30.43 in 10.0 mi NNE 6.9 mph - N/A   Overcast
9:53 AM 39.9 °F 35.8 °F 19.9 °F 45% 30.41 in 10.0 mi NE 5.8 mph - N/A   Overcast
10:53 AM 42.1 °F 40.2 °F 21.0 °F 43% 30.39 in 10.0 mi Variable 3.5 mph - N/A   Overcast
11:53 AM 43.0 °F 39.5 °F 25.0 °F 49% 30.36 in 10.0 mi SSE 5.8 mph - N/A   Overcast
12:38 PM 45.0 °F 40.6 °F 24.1 °F 44% 30.37 in 10.0 mi South 8.1 mph - N/A   Overcast
12:53 PM 46.0 °F 42.5 °F 24.1 °F 42% 30.31 in 10.0 mi South 6.9 mph - N/A   Overcast
1:53 PM 48.0 °F - 26.1 °F 42% 30.27 in 10.0 mi Calm Calm - N/A   Scattered Clouds
2:53 PM 48.9 °F - 27.0 °F 43% 30.25 in 10.0 mi South 9.2 mph - N/A   Clear
3:53 PM 50.0 °F - 28.9 °F 44% 30.23 in 10.0 mi South 9.2 mph - N/A   Clear
4:53 PM 48.9 °F - 28.0 °F 44% 30.21 in 10.0 mi SSW 5.8 mph - N/A   Clear
5:53 PM 46.9 °F - 28.0 °F 48% 30.21 in 10.0 mi Calm Calm - N/A   Clear
6:53 PM 45.0 °F 40.6 °F 27.0 °F 49% 30.21 in 10.0 mi SSE 8.1 mph - N/A   Clear
7:53 PM 44.1 °F 39.5 °F 26.1 °F 49% 30.22 in 10.0 mi South 8.1 mph - N/A   Clear
8:53 PM 43.0 °F 39.5 °F 25.0 °F 49% 30.20 in 10.0 mi South 5.8 mph - N/A   Clear
9:53 PM 41.0 °F 37.1 °F 25.0 °F 53% 30.19 in 10.0 mi South 5.8 mph - N/A   Clear
10:53 PM 39.0 °F 34.0 °F 23.0 °F 53% 30.17 in 10.0 mi SSE 6.9 mph - N/A   Clear
11:53 PM 39.9 °F 35.1 °F 21.9 °F 49% 30.15 in 10.0 mi South 6.9 mph - N/A   Clear